Weather History for McCook, NE

Change the Weather History Date:

Thursday, April 11, 2013

  Actual Average Record
Temperature  
Mean Temperature 32 °F 48 °F  
Max Temperature 42 °F 63 °F 93 °F (1977)
Min Temperature 22 °F 33 °F 15 °F (1997)
Degree Days  
Heating Degree Days 34    
Moisture  
Dew Point 22 °F    
Average Humidity 72    
Maximum Humidity 85    
Minimum Humidity 55    
Precipitation  
Precipitation T in 0.07 in 0.30 in (1991)
Month to date precipitation 0.75 0.65  
Year to date precipitation 2.59 3.14  
Sea Level Pressure  
Sea Level Pressure 29.88 in    
Wind  
Wind Speed 13 mph (NW)    
Max Wind Speed 23 mph    
Max Gust Speed 28 mph    
Visibility 10 miles    
Events      
T = Trace of Precipitation, MM = Missing Value Source: NWS Daily Summary

Daily Weather History Graph

Daily Weather History Graph

Search for Another Location

Airport:

Trip Planner

Search our weather history database for the weather conditions in past years. The results will help you decide how hot, cold, wet, or windy it might be!

Date:

Astronomy

Apr. 11, 2013 Rise Set
Actual Time 7:09 AM CDT 8:17 PM CDT
Civil Twilight 6:42 AM CDT 8:45 PM CDT
Nautical Twilight 6:08 AM CDT 9:18 PM CDT
Astronomical Twilight 5:34 AM CDT 9:53 PM CDT
Moon 7:42 AM CDT (4/11) 9:53 PM CDT (4/11)
Length of Visible Light 14h 03m
Length of Day
13h 07m
New Moon, 2% of the Moon is Illuminated
Apr 11
New Moon
Apr 18
First Quarter
Apr 25
Full
May 2
Last Quarter
May 9
New

Hourly Weather History & Observations

Time (CDT) Temp. Windchill Dew Point Humidity Pressure Visibility Wind Dir Wind Speed Gust Speed Precip Events Conditions
12:07 AM 24.8 °F 14.0 °F 19.4 °F 80% 29.96 in 10.0 mi NW 11.5 mph - N/A   Overcast
12:53 AM 25.0 °F 14.2 °F 19.9 °F 81% 30.03 in 10.0 mi NW 11.5 mph - N/A   Overcast
1:53 AM 23.0 °F 12.4 °F 19.0 °F 85% 30.01 in 10.0 mi WNW 10.4 mph - 0.00 in   Clear
2:53 AM 23.0 °F 13.1 °F 18.0 °F 81% 29.97 in 10.0 mi WNW 9.2 mph - N/A   Overcast
3:53 AM 23.0 °F 12.4 °F 19.0 °F 85% 29.94 in 10.0 mi WNW 10.4 mph - N/A   Clear
4:53 AM 23.0 °F 12.4 °F 19.0 °F 85% 29.90 in 10.0 mi WNW 10.4 mph - N/A   Scattered Clouds
5:53 AM 21.9 °F 10.4 °F 18.0 °F 85% 29.88 in 10.0 mi WNW 11.5 mph - N/A   Partly Cloudy
6:53 AM 21.9 °F 9.2 °F 16.0 °F 78% 29.86 in 10.0 mi NW 13.8 mph - N/A   Clear
7:53 AM 21.9 °F 11.0 °F 17.1 °F 82% 29.90 in 10.0 mi WNW 10.4 mph - N/A   Scattered Clouds
8:53 AM 25.0 °F 13.1 °F 18.0 °F 75% 29.89 in 10.0 mi NW 13.8 mph - N/A   Mostly Cloudy
9:53 AM 27.0 °F 14.3 °F 18.0 °F 69% 29.88 in 10.0 mi NW 17.3 mph - N/A   Overcast
10:53 AM 30.0 °F 18.3 °F 19.9 °F 66% 29.88 in 10.0 mi NW 17.3 mph - N/A   Unknown
11:53 AM 33.8 °F 22.5 °F 23.0 °F 65% 29.79 in 10.0 mi NW 19.6 mph - N/A   Overcast
12:53 PM 35.1 °F 23.8 °F 25.0 °F 67% 29.84 in 10.0 mi NW 20.7 mph - N/A   Partly Cloudy
1:53 PM 37.9 °F 28.2 °F 27.0 °F 65% 29.82 in 10.0 mi WNW 18.4 mph 24.2 mph N/A   Overcast
2:53 PM 39.9 °F 29.7 °F 26.1 °F 58% 29.81 in 10.0 mi NW 23.0 mph 27.6 mph N/A   Mostly Cloudy
3:53 PM 41.0 °F 32.2 °F 27.0 °F 57% 29.80 in 10.0 mi NW 18.4 mph - N/A   Mostly Cloudy
4:53 PM 41.0 °F 31.1 °F 26.1 °F 55% 29.80 in 10.0 mi NNW 23.0 mph 27.6 mph N/A   Mostly Cloudy
5:53 PM 41.0 °F 33.9 °F 27.0 °F 57% 29.81 in 10.0 mi North 12.7 mph 25.3 mph N/A   Partly Cloudy
6:53 PM 39.9 °F 31.8 °F 26.1 °F 58% 29.83 in 10.0 mi NNW 15.0 mph - N/A   Clear
7:53 PM 36.0 °F 27.5 °F 26.1 °F 67% 29.86 in 10.0 mi NNE 12.7 mph - N/A   Mostly Cloudy
8:53 PM 35.1 °F 27.4 °F 26.1 °F 70% 29.87 in 10.0 mi NNE 10.4 mph - N/A   Overcast
9:53 PM 30.9 °F 24.3 °F 24.1 °F 76% 29.91 in 10.0 mi NW 6.9 mph - N/A   Scattered Clouds
10:53 PM 28.9 °F 21.9 °F 23.0 °F 78% 29.93 in 10.0 mi NNW 6.9 mph - N/A   Partly Cloudy
11:53 PM 28.9 °F 20.4 °F 21.9 °F 75% 29.95 in 10.0 mi NNW 9.2 mph - N/A   Clear